541  
ASCA44 KEWX 240410  
RWRMX  
 
LATIN AMERICA AND CARIBBEAN REGIONAL WEATHER ROUNDUP  
NATIONAL WEATHER SERVICE AUSTIN/SAN ANTONIO TX  
1000 PM CST FRI FEB 23 2018  
 
NOTE: "FAIR" INDICATED FEW OR NO CLOUDS BELOW 12,000 FEET WITH NO  
SIGNIFICANT WEATHER AND/OR S TO VISIBILITY
.  
 
BAJA CALIFORNIA  
 
CITY SKY/WX TMP DP RH WIND PRES REMARKS
 
LA PAZ MOCLDY 63 52 67 CALM 30.09S  
MEXICALI CLEAR 52 19 28 W7 30.18R  
S.J. DEL CABO PTCLDY 66 54 63 CALM 30.08R  
TIJUANA CLEAR 48 32 53 CALM 30.27R  
 
NORTHWESTERN MEXICO  
 
CITY SKY/WX TMP DP RH WIND PRES REMARKS
 
CULIACAN MOCLDY 64 54 68 CALM 30.02R  
HERMOSILLO CLEAR 59 37 44 W5 30.08R  
CD. JUAREZ CLEAR 57 5 12 SW10 29.96R  
LOS MOCHIS PTCLDY 59 46 63 NW12 30.07R  
 
NORTHEASTERN MEXICO  
 
CITY SKY/WX TMP DP RH WIND PRES REMARKS
 
CHIHUAHUA CLEAR 64 23 20 SW13 30.03R  
MONCLOVA N/A N/A N/A N/A MISG N/A  
MONTERREY MOCLDY 66 63 88 W9 29.96R  
REYNOSA N/A N/A N/A N/A MISG N/A  
SALTILLO PTCLDY 61 52 72 CALM 30.17R  
TORREON MOCLDY 82 39 21 MISG 29.99R  
CD. VICTORIA CLEAR 75 64 69 S14 29.97S  
 
WESTERN MEXICO  
 
CITY SKY/WX TMP DP RH WIND PRES REMARKS
 
AGUASCALIENTES CLEAR 64 30 27 W2 30.25S  
COLIMA PTCLDY 73 59 60 N8 30.12R  
DEL BAJIO PTCLDY 68 43 40 N5 30.29R  
GUADALAJARA PTCLDY 68 39 34 SW7 30.21R  
MAZATLAN MOCLDY 68 54 60 NW5 30.04R  
P. VALLARTA CLEAR 72 66 83 NE2 30.02S  
URUAPAN N/A N/A N/A N/A MISG N/A  
 
CENTRAL MEXICO  
 
CITY SKY/WX TMP DP RH WIND PRES REMARKS
 
CUERNAVACA N/A N/A N/A N/A MISG N/A  
MEXICO CITY CLOUDY 66 39 37 E8 30.34R  
MORELIA PTCLDY 61 45 55 CALM 30.25R  
POZA RICA N/A N/A N/A N/A MISG N/A  
QUERETARO PTCLDY 66 50 55 E12 30.31R  
TAMPICO PTCLDY 73 72 94 MISG 30.02S  
TOLUCA MOCLDY 54 45 71 W9 30.40S  
 
SOUTHERN MEXICO  
 
CITY SKY/WX TMP DP RH WIND PRES REMARKS
 
ACAPULCO CLEAR 81 73 78 W6 29.96R  
B. DE HUATULCO N/A N/A N/A N/A MISG N/A  
P. ESCONDIDO N/A N/A N/A N/A MISG N/A  
VERACRUZ MOCLDY 75 72 88 E5 30.05R  
 
YUCATAN PENINSULA  
 
CITY SKY/WX TMP DP RH WIND PRES REMARKS
 
CAMPECHE PTCLDY 81 68 65 E12 30.03S  
CANCUN PTCLDY 77 68 73 E9 30.14  
CHETUMAL PTCLDY 77 72 83 E6 30.10R  
CD. DEL CARMEN PTCLDY 82 68 61 SE15 30.05R  
COZUMEL CLEAR 73 70 88 E6 30.11F  
MERIDA CLEAR 79 64 61 E12 30.09R  
MINATITLAN CLEAR 75 73 94 N12 30.01  
TAPACHULA CLEAR 73 72 94 CALM 29.94S  
TUX. GUTIERREZ MOCLDY 77 64 65 NW9 30.04R  
VILLAHERMOSA CLEAR 75 70 83 E8 30.05R  
 
CENTRAL AMERICA  
 
CITY SKY/WX TMP DP RH WIND PRES REMARKS
 
 
CARIBBEAN  
 
CITY SKY/WX TMP DP RH WIND PRES REMARKS
 
ARUBA PTCLDY 77 70 78 E16G30 29.97S  
CURACAO PTCLDY 73 70 88 E23 30.00S  
KINGSTON PTCLDY 79 70 73 N7 30.03S  
NASSAU MOCLDY 75 66 73 NE7 30.27S  
SAN JUAN MOCLDY 73 68 83 SE7 30.11F  
SANTO DOMINGO PTCLDY 72 66 83 N5 30.09F  
ST. CROIX PTCLDY 73 66 78 NE10 30.09  
ST. THOMAS PTCLDY 73 66 78 NE13 30.09  
 

 
 
 
 
CLICK HERE TO GO TO PREVIOUS BULLETINS.

The Nexlab HPC Page Main Text Page